Location: Freistadt
(48.5112°N, 14.5013°E)
Time: 05:28:32
(UTC+02:00)

CUBEBUG 2 - Pass Details

Date: 06 April 2023
Orbit: 577 x 686 km, 97.8° (Epoch: 29 May)

Event Time Altitude Azimuth Distance (km) Brightness Sun altitude
Rises 05:29:28 0° 357° (N) 3,060 ? -10.5°
Reaches altitude 10° 05:33:13 10° 326° (NW) 2,123 ? -10.0°
Maximum altitude 05:34:48 12° 306° (NW) 1,999 ? -9.7°
Drops below altitude 10° 05:36:24 10° 285° (WNW) 2,102 ? -9.5°
Enters shadow 05:37:02 - 278° (W) 2,203 ? -9.4°
